Date,TemperatureHighF,TemperatureAvgF,TemperatureLowF,DewpointHighF,DewpointAvgF,DewpointLowF,HumidityHigh,HumidityAvg,HumidityLow,PressureMaxIn,PressureMinIn,WindSpeedMaxMPH,WindSpeedAvgMPH,GustSpeedMaxMPH,PrecipitationSumIn
2013-3-1,45.2,39.9,34.7,34.6,31.5,27.8,90,72,57,29.74,29.57,13,3,13,0.00
2013-3-2,40.8,36.2,31.0,29.8,27.1,25.4,92,70,57,29.74,29.66,15,4,15,0.00
2013-3-3,33.7,32.4,29.7,28.6,23.2,20.2,90,69,63,29.72,29.62,15,4,15,0.00
2013-3-4,33.6,33.6,33.6,22.4,22.4,22.4,63,63,63,29.87,29.71,0,0,0,0.00
2013-3-5,33.6,33.6,33.6,22.4,22.4,22.4,63,63,63,30.00,29.86,0,0,0,0.00
2013-3-6,40.0,34.9,33.6,33.4,24.7,22.4,86,66,63,29.97,29.84,24,3,32,0.01
2013-3-7,36.1,26.0,0.0,32.5,24.2,0.0,92,69,86,30.04,29.90,22,4,25,0.01
2013-3-8,35.1,31.6,0.0,32.2,30.8,0.0,97,96,89,30.14,29.97,10,5,16,0.02
2013-3-9,32.5,19.3,0.0,31.7,18.9,0.0,97,58,97,30.30,30.14,4,2,4,0.00
2013-3-10,45.4,18.7,0.0,36.9,16.0,0.0,89,36,71,30.36,30.28,10,1,10,0.00
2013-3-11,50.6,40.2,38.1,48.3,37.5,34.9,93,90,87,30.30,30.08,13,1,13,0.00
2013-3-12,55.0,52.0,43.8,53.9,49.3,38.4,97,91,80,30.08,29.65,31,6,31,1.11
2013-3-13,50.8,43.0,35.0,38.9,32.6,24.1,95,69,39,29.86,29.75,21,3,21,0.00
2013-3-14,39.4,35.5,28.8,30.2,17.1,11.7,70,48,33,29.92,29.81,25,7,25,0.00
2013-3-15,45.4,38.9,29.9,32.3,20.8,5.5,65,49,34,29.94,29.68,23,6,23,0.00
2013-3-16,41.1,36.6,35.1,29.9,24.1,22.2,64,60,59,29.88,29.75,7,3,7,0.00
2013-3-17,35.1,31.4,31.1,29.4,28.1,20.1,90,88,59,30.28,29.88,3,0,3,0.00
2013-3-18,34.6,31.8,31.1,28.5,27.5,21.2,90,84,63,30.39,30.02,18,2,18,0.00
2013-3-19,41.4,36.4,33.0,37.1,34.6,27.2,98,93,78,30.02,29.66,29,6,29,0.98
2013-3-20,37.4,35.2,35.0,30.9,25.0,24.3,78,66,60,29.85,29.76,14,4,14,0.00
2013-3-21,37.3,33.1,31.8,27.4,24.2,21.1,71,70,62,29.82,29.61,14,3,14,0.00
2013-3-22,41.9,34.0,31.8,32.8,25.2,23.1,70,70,70,29.84,29.69,3,1,3,0.00
2013-3-23,59.2,40.4,32.2,27.4,3.2,0.0,70,9,70,29.89,29.78,0,0,0,0.00
2013-3-24,57.8,42.1,29.7,42.2,27.6,0.0,70,56,55,29.92,29.68,11,1,11,0.00
2013-3-25,40.8,37.8,35.2,35.6,31.7,28.1,94,79,63,29.69,29.43,30,4,30,0.11
2013-3-26,68.6,43.5,33.4,61.7,37.3,24.8,81,79,70,29.82,29.55,16,0,16,0.00
2013-3-27,51.9,42.9,33.4,32.0,28.6,24.2,80,59,34,29.92,29.82,18,3,18,0.00
2013-3-28,43.2,37.8,37.5,31.9,12.0,0.0,64,28,64,30.08,29.92,0,0,0,0.00
2013-3-29,37.5,37.5,37.5,0.0,0.0,0.0,0,0,100,30.12,30.02,0,0,0,0.00
2013-3-30,58.4,46.1,37.3,34.7,22.8,0.0,80,39,25,30.14,30.03,13,2,14,0.00
2013-3-31,55.0,45.6,31.0,44.2,35.7,25.6,95,71,42,30.11,29.64,18,4,18,0.12